User: anonymous   Login
Location: Newark
(49.9828°N, 3.1606°E)
Time: 19:47:31
(UTC+00:00)
Language:

Envisat - Orbit

View from above orbital plane
View from above orbital plane
View from above satellite
View from above satellite

Ground track
Ground track

The orbit data is extracted from the following two-line orbital elements,

1 27386U 02009A   20054.49508001  .00000012  00000-0  17451-4 0  9990
2 27386  98.1398  67.5705 0001215  95.3041  78.6572 14.37972206942097
Epoch (UTC): 23 February 2020 11:52:54
Eccentricity: 0.0001215
inclination: 98.1398°
perigee height: 764 km
apogee height: 766 km
right ascension of ascending node: 67.5705°
argument of perigee: 95.3041°
revolutions per day: 14.37972206
mean anomaly at epoch: 78.6572°
orbit number at epoch: 94209

The dashed part of the orbit path shows where the satellite is in the earth's shadow,  

DLR